User: anonymous   Login
Location: Unspecified
(0.0000°N, 0.0000°E)
Time: 00:47:21
(UTC+00:00)
Language:

deb Explorer IX - Orbit

View from above orbital plane
View from above orbital plane
View from above satellite
View from above satellite

Ground track
Ground track

The orbit data is extracted from the following two-line orbital elements,

1    85U 61004C   19200.48812168  .00000677  00000-0  16440-3 0  9992
2    85  38.7742 283.2861 0397749  75.4126 289.0376 14.19915412883584
Epoch (UTC): 19 July 2019 11:42:53
Eccentricity: 0.0397749
inclination: 38.7742°
perigee height: 539 km
apogee height: 1112 km
right ascension of ascending node: 283.2861°
argument of perigee: 75.4126°
revolutions per day: 14.19915412
mean anomaly at epoch: 289.0376°
orbit number at epoch: 88358

The dashed part of the orbit path shows where the satellite is in the earth's shadow,  

DLR